Tracking 29892 objects as of 21-Nov-2024
HD Live streaming from Space Station
objects crossing your sky now

NOAA 16 DEB

Track NOAA 16 DEB now!
10-day predictions


NORAD ID: 41263
Int'l Code: 2000-055FP
Perigee: 817.7 km
Apogee: 921.6 km
Inclination: 98.9 °
Period: 102.2 minutes
Semi major axis: 7240 km
RCS: Unknown
Launch date: September 21, 2000
Source: United States (US)
Launch site: AIR FORCE WESTERN TEST RANGE (AFWTR)

Note: This is SATELLITE DEBRIS
Your satellite tracking list
Your tracking list is empty




NASA's NSSDC Master Catalog

Two Line Element Set (TLE):
1 41263U 00055FP  24325.49832608  .00009338  00000-0  52777-2 0  9995
2 41263  98.8622 341.6491 0071757 248.5829 110.7675 14.09071402454587
Source of the keplerian elements: AFSPC